Location: Unspecified
(0.0000°N, 0.0000°E)
Time: 04:58:47
(UTC+00:00)

deb West Ford - Pass Details

Date: 18 May 2026
Orbit: 2163 x 4941 km, 86.7° (Epoch: 8 June)

Event Time Altitude Azimuth Distance (km) Brightness Sun altitude
Exits shadow 00:32:35 18° 51° (NE) 4,200 ? -68.6°
Drops below altitude 10° 00:35:27 10° 38° (NE) 4,738 ? -68.3°
Sets 00:39:19 0° 27° (NNE) 5,683 ? -67.8°
